Weather History for Milwaukee, WI

Change the Weather History Date:

Thursday, December 15, 2011

  Actual Average Record
Temperature  
Mean Temperature 42 °F 26 °F  
Max Temperature 54 °F 33 °F 55 °F (1891)
Min Temperature 30 °F 20 °F -14 °F (1901)
Degree Days  
Heating Degree Days 23 39  
Month to date heating degree days 453 543  
Since 1 July heating degree days 1631 1908  
Cooling Degree Days 0 0  
Month to date cooling degree days 0 0  
Year to date cooling degree days 793 641  
Moisture  
Dew Point 35 °F    
Average Humidity 70    
Maximum Humidity 93    
Minimum Humidity 47    
Precipitation  
Precipitation T in 0.06 in 1.57 in (1987)
Month to date precipitation 1.48 1.10  
Year to date precipitation 31.84 33.82  
Snow  
Snow 0.00 in 0.30 in 13.10 in (1987)
Month to date snowfall 0.6 4.6  
Since 1 July snowfall 0.7 7.3  
Snow Depth 0.00 in    
Sea Level Pressure  
Sea Level Pressure 29.78 in    
Wind  
Wind Speed 16 mph (West)    
Max Wind Speed 32 mph    
Max Gust Speed 44 mph    
Visibility 10 miles    
Events Rain    
T = Trace of Precipitation, MM = Missing Value Source: NWS Daily Summary

Daily Weather History Graph

Daily Weather History Graph

Search for Another Location

Airport:

Trip Planner

Search our weather history database for the weather conditions in past years. The results will help you decide how hot, cold, wet, or windy it might be!

Date:

Astronomy

Dec. 15, 2011 Rise Set
Actual Time 7:15 AM CST 4:17 PM CST
Civil Twilight 6:43 AM CST 4:50 PM CST
Nautical Twilight 6:07 AM CST 5:25 PM CST
Astronomical Twilight 5:32 AM CST 6:00 PM CST
Moon 9:50 PM CST (12/15) 10:25 AM CST (12/15)
Length of Visible Light 10h 06m
Length of Day
9h 02m
Waning Gibbous, 74% of the Moon is Illuminated
Dec 15
Waning Gibbous
Dec 17
Last Quarter
Dec 24
New
Jan 1
First Quarter
Jan 9
Full

Hourly Weather History & Observations

Time (CST) Temp. Windchill Dew Point Humidity Pressure Visibility Wind Dir Wind Speed Gust Speed Precip Events Conditions
12:52 AM 53.1 °F - 52.0 °F 96% 29.60 in 6.0 mi SW 17.3 mph 23.0 mph 0.00 in   Overcast
1:45 AM 53.6 °F - 51.8 °F 94% 29.57 in 9.0 mi SW 16.1 mph 25.3 mph 0.00 in   Overcast
1:52 AM 54.0 °F - 52.0 °F 93% 29.58 in 10.0 mi SW 16.1 mph 25.3 mph 0.00 in   Overcast
2:02 AM 53.6 °F - 51.8 °F 94% 29.57 in 10.0 mi SW 15.0 mph - 0.00 in Rain Light Rain
2:15 AM 53.6 °F - 51.8 °F 94% 29.57 in 10.0 mi SW 15.0 mph - 0.00 in   Mostly Cloudy
2:52 AM 54.0 °F - 50.0 °F 86% 29.57 in 10.0 mi WSW 16.1 mph 23.0 mph 0.00 in   Mostly Cloudy
3:15 AM 53.6 °F - 48.2 °F 82% 29.57 in 10.0 mi WSW 15.0 mph 20.7 mph N/A   Scattered Clouds
3:52 AM 53.1 °F - 46.0 °F 77% 29.58 in 10.0 mi WSW 16.1 mph 25.3 mph N/A   Mostly Cloudy
4:28 AM 51.8 °F - 46.4 °F 82% 29.58 in 10.0 mi West 15.0 mph 20.7 mph N/A   Mostly Cloudy
4:52 AM 51.1 °F - 44.1 °F 77% 29.60 in 10.0 mi West 19.6 mph 31.1 mph N/A   Mostly Cloudy
5:52 AM 48.0 °F - 43.0 °F 83% 29.63 in 10.0 mi West 16.1 mph 24.2 mph N/A   Overcast
6:43 AM 46.4 °F 40.1 °F 41.0 °F 81% 29.65 in 10.0 mi West 15.0 mph 27.6 mph N/A   Mostly Cloudy
6:52 AM 46.0 °F 40.6 °F 41.0 °F 83% 29.66 in 10.0 mi West 11.5 mph 21.9 mph N/A   Mostly Cloudy
7:20 AM 46.4 °F 41.1 °F 39.2 °F 76% 29.65 in 10.0 mi West 11.5 mph - N/A   Overcast
7:43 AM 44.6 °F 37.8 °F 39.2 °F 81% 29.67 in 10.0 mi West 15.0 mph 20.7 mph N/A   Overcast
7:52 AM 44.6 °F 39.7 °F 39.2 °F 81% 29.67 in 10.0 mi West 9.2 mph 21.9 mph N/A   Mostly Cloudy
8:47 AM 44.6 °F 38.8 °F 37.4 °F 76% 29.70 in 10.0 mi West 11.5 mph 19.6 mph N/A   Overcast
8:52 AM 44.1 °F 37.4 °F 37.9 °F 79% 29.71 in 10.0 mi West 13.8 mph 20.7 mph N/A   Overcast
9:52 AM 44.1 °F 36.8 °F 36.0 °F 73% 29.74 in 10.0 mi West 16.1 mph 25.3 mph N/A   Overcast
10:52 AM 43.0 °F 35.4 °F 35.1 °F 74% 29.75 in 10.0 mi West 16.1 mph 28.8 mph N/A   Overcast
11:52 AM 41.0 °F 33.5 °F 35.1 °F 79% 29.78 in 10.0 mi West 13.8 mph 26.5 mph N/A   Overcast
12:01 PM 41.0 °F 31.9 °F 35.6 °F 81% 29.76 in 10.0 mi West 19.6 mph 33.4 mph N/A   Overcast
12:36 PM 39.2 °F 30.5 °F 33.8 °F 81% 29.78 in 10.0 mi West 16.1 mph 27.6 mph N/A   Overcast
12:52 PM 39.0 °F 30.3 °F 32.0 °F 76% 29.80 in 10.0 mi West 16.1 mph 26.5 mph N/A   Overcast
1:52 PM 36.0 °F 24.7 °F 28.9 °F 76% 29.83 in 5.0 mi West 21.9 mph 31.1 mph N/A   Haze
2:52 PM 34.0 °F 23.0 °F 21.9 °F 61% 29.89 in 10.0 mi West 18.4 mph 34.5 mph N/A   Overcast
3:09 PM 33.8 °F 22.5 °F 21.2 °F 60% 29.89 in 10.0 mi West 19.6 mph 36.8 mph N/A   Overcast
3:52 PM 35.1 °F 23.8 °F 21.0 °F 57% 29.93 in 10.0 mi WNW 20.7 mph 33.4 mph N/A   Overcast
4:52 PM 35.1 °F 24.8 °F 21.0 °F 57% 29.97 in 10.0 mi WNW 17.3 mph 26.5 mph N/A   Overcast
5:52 PM 35.1 °F 25.5 °F 21.9 °F 59% 30.01 in 10.0 mi West 15.0 mph 23.0 mph N/A   Mostly Cloudy
6:52 PM 35.1 °F 24.1 °F 19.0 °F 52% 30.04 in 10.0 mi WNW 19.6 mph 29.9 mph N/A   Overcast
7:52 PM 33.1 °F 21.2 °F 17.1 °F 52% 30.09 in 10.0 mi NW 20.7 mph 27.6 mph N/A   Scattered Clouds
8:52 PM 32.0 °F 22.5 °F 16.0 °F 52% 30.14 in 10.0 mi WNW 12.7 mph 24.2 mph N/A   Mostly Cloudy
9:52 PM 33.1 °F 23.0 °F 16.0 °F 50% 30.18 in 10.0 mi WNW 15.0 mph 23.0 mph N/A   Mostly Cloudy
10:52 PM 30.9 °F 24.3 °F 16.0 °F 54% 30.21 in 10.0 mi West 6.9 mph - N/A   Clear
11:52 PM 30.0 °F 22.4 °F 17.1 °F 59% 30.23 in 10.0 mi West 8.1 mph - N/A   Clear